Regional Weather Roundup
Issued by NWS Kansas City/Pleasant Hill, MO

Home | Current Version | Previous Version | Graphics & Text | Print | Product List | Glossary Off
Versions: 1 2 3 4 5 6 7 8 9 10 11 12 13 14 15 16 17 18 19 20 21 22 23 24 25 26 27

000
ASUS43 KEAX 250110
RWREAX

WEATHER ROUNDUP FOR EASTERN KANSAS AND NORTHWEST MISSOURI
NATIONAL WEATHER SERVICE KANSAS CITY/PLEASANT HILL MO
800 PM CDT TUE APR 24 2018

KSZ040-057-103>105-MOZ028-029-037-043-250200-
...KANSAS CITY METROPOLITAN AREA...

CITY           SKY/WX    TMP DP  RH WIND       PRES   REMARKS
K.C. INTL      CLOUDY    65  43  44 NW18G31   30.10R
K.C. DOWNTOWN  CLOUDY    69  43  38 NW21G33   30.05R
LEES SUMMIT    PTCLDY    70  36  28 N6        30.06S
OLATHE - IXD   MOCLDY    66  44  45 NW18      30.10R
OLATHE - OJC   MOCLDY    67  43  41 NW17G30   30.08R
LAWRENCE       CLOUDY    63  46  54 N23G36    30.09R

$$

MOZ001>008-011>017-020>025-030>033-038>040-044>046-053-054-250200-
...NORTHERN AND CENTRAL MISSOURI...

CITY           SKY/WX    TMP DP  RH WIND       PRES   REMARKS
ST. JOSEPH     CLOUDY    64  46  52 NW30G41   30.10R
MOSBY          CLOUDY    70  36  28 CALM      30.05S
WARRENSBURG    PTCLDY    68  34  28 N5        30.05R
WHITEMAN AFB   NOT AVBL
CLINTON        CLOUDY    68  39  34 NW7       30.05R
SEDALIA        CLEAR     68  37  32 N10       30.04R
WARSAW         NOT AVBL
CHILLICOTHE      N/A     70  37  29 CALM      30.04F
KIRKSVILLE     MOCLDY    66  34  30 NW6       30.04R

$$

MOZ041-047>049-056>058-063>065-088>090-097-250200-
...EASTERN AND SOUTHERN MISSOURI...

CITY           SKY/WX    TMP DP  RH WIND       PRES   REMARKS
ST. LOUIS INTL MOCLDY    67  48  50 CALM      29.98S
SPIRIT OF STL  PTCLDY    61  52  72 CALM      29.98R
COLUMBIA       PTCLDY    67  38  34 N7        30.02R
JEFFERSON CITY PTCLDY    72  39  30 NW5       30.01R
ROLLA          PTCLDY    64  48  56 CALM      30.03R
OSAGE BEACH    PTCLDY    69  44  40 CALM      30.03S
SPRINGFIELD    CLEAR     66  38  35 N8        30.05R
BRANSON        PTCLDY    68  39  34 NW6       30.06R
JOPLIN         CLOUDY    70  37  29 NE6       30.06R
WEST PLAINS    CLEAR     65  46  50 N6        30.04R

$$

IAZ060-094-KSZ022-034>040-054-083-096-NEZ052-066-093-250200-
...KANSAS...SOUTHEAST NEBRASKA AND IOWA...

CITY           SKY/WX    TMP DP  RH WIND       PRES   REMARKS
TOPEKA         CLOUDY    61  47  59 NW21G35   30.12R
MANHATTAN      CLOUDY    56  48  74 NW6       30.16R
EMPORIA        CLOUDY    59  45  59 NW12G21   30.13R
CHANUTE        PTCLDY    70  37  29 N5        30.07R
WICHITA        CLOUDY    59  48  67 N22       30.15R
OMAHA          LGT RAIN  54  51  90 NW12      30.18R
LINCOLN        LGT RAIN  51  48  89 N8        30.21S
FALLS CITY     LGT RAIN  58  47  66 NW18G30   30.16R
LAMONI         CLOUDY    67  38  34 NE10      30.05S
DES MOINES     CLOUDY    65  43  44 N17       30.09R

$$





USA.gov is the U.S. government's official web portal to all federal, state and local government web resources and services.